Dublin, Ireland

11:55 PM GMT on November 21, 2017 (GMT +0000)
Dublin International

Weather History for EIDW - September, 2012

Change the Weather History Date:

Tuesday, September 25, 2012

  Actual Average Record
Temperature  
Mean Temperature 48 °F -  
Max Temperature 51 °F 58 °F 66 °F (2004)
Min Temperature 46 °F 46 °F 37 °F (2010)
Degree Days  
Heating Degree Days 16    
Moisture  
Dew Point 47 °F    
Average Humidity 93    
Maximum Humidity 100    
Minimum Humidity 82    
Precipitation  
Precipitation 0.24 in 0.09 in - ()
Sea Level Pressure  
Sea Level Pressure 29.08 in    
Wind  
Wind Speed 14 mph ()    
Max Wind Speed 25 mph    
Max Gust Speed 33 mph    
Visibility 5.9 miles    
Events Rain    
Averages and records for this station are not official NWS values.
T = Trace of Precipitation, MM = Missing Value Source: Averaged Metar Reports

Daily Weather History Graph

Daily Weather History Graph

Search for Another Location

Airport or City:

Trip Planner

Search our weather history database for the weather conditions in past years. The results will help you decide how hot, cold, wet, or windy it might be!

Date:

Astronomy

Sep. 25, 2012 Rise Set
Actual Time 7:16 AM IST 7:15 PM IST
Civil Twilight 6:41 AM IST 7:50 PM IST
Nautical Twilight 6:00 AM IST 8:31 PM IST
Astronomical Twilight 5:17 AM IST 9:13 PM IST
Moon 5:02 PM IST (9/25) 1:46 AM IST (9/25)
Length of Visible Light 13h 08m
Length of Day
11h 58m
Waxing Gibbous, 78% of the Moon is Illuminated
Sep 25
Waxing Gibbous
Sep 30
Full
Oct 8
Last Quarter
Oct 15
New
Oct 22
First Quarter

Hourly Weather History & Observations

Time (IST) Temp. Windchill Dew Point Humidity Pressure Visibility Wind Dir Wind Speed Gust Speed Precip Events Conditions
12:00 AM 46.4 °F 41.1 °F 46.4 °F 100% 29.12 in 6.2 mi NW 11.5 mph - N/A Rain Light Rain
12:30 AM 48.2 °F - 46.4 °F 93% 29.12 in 6.2 mi NW 11.5 mph - N/A Rain Light Rain
1:00 AM 47 °F - 47 °F 98% 29.12 in 7 mi NW 11.2 mph - - Rain Light Rain
1:00 AM 46.4 °F 41.1 °F 46.4 °F 100% 29.12 in 6.2 mi NW 11.5 mph - N/A Rain Light Rain
1:30 AM 48.2 °F - 46.4 °F 93% 29.09 in 6.2 mi NW 11.5 mph - N/A Rain Light Rain
2:00 AM 48.2 °F - 46.4 °F 93% 29.09 in 6.2 mi NW 11.5 mph - N/A Rain Light Rain
2:30 AM 48.2 °F - 46.4 °F 93% 29.09 in 6.2 mi NW 10.4 mph - N/A Rain Light Rain
3:00 AM 48.2 °F - 46.4 °F 93% 29.09 in 6.2 mi NW 10.4 mph - N/A Rain Light Rain
3:30 AM 48.2 °F - 46.4 °F 93% 29.06 in 6.2 mi NW 12.7 mph - N/A Rain Light Rain
4:00 AM 48.2 °F - 48.2 °F 100% 29.06 in 6.2 mi NNW 15.0 mph - N/A Rain Light Rain
4:30 AM 48.2 °F - 48.2 °F 100% 29.06 in 6.2 mi NNW 15.0 mph - N/A Rain Light Rain
5:00 AM 48.2 °F - 46.4 °F 93% 29.06 in 6.2 mi NNW 15.0 mph - N/A Rain Light Rain
5:30 AM 48.2 °F - 46.4 °F 93% 29.06 in 6.2 mi NNW 17.3 mph - N/A Rain Light Rain
6:00 AM 48.2 °F - 46.4 °F 93% 29.06 in 5.0 mi NNW 16.1 mph - N/A Rain Light Rain
6:30 AM 48.2 °F - 46.4 °F 93% 29.06 in 6.2 mi NNW 15.0 mph - N/A Rain Light Rain
7:00 AM 48 °F - 47 °F 93% 29.08 in 5 mi NNW 17.9 mph - - Rain Light Rain
7:00 AM 48.2 °F - 46.4 °F 93% 29.06 in 5.0 mi NNW 17.3 mph - N/A Rain Light Rain
7:30 AM 48.2 °F - 46.4 °F 93% 29.06 in 6.2 mi NNW 16.1 mph - N/A Rain Light Rain
8:00 AM 48.2 °F - 46.4 °F 93% 29.09 in 6.2 mi North 17.3 mph 31.1 mph N/A Rain Light Rain
8:30 AM 46.4 °F 39.8 °F 46.4 °F 100% 29.09 in 5.6 mi North 16.1 mph - N/A Rain Light Rain
9:00 AM 46.4 °F 39.5 °F 46.4 °F 100% 29.09 in 5.0 mi NNW 17.3 mph - N/A Rain Light Rain
9:30 AM 46.4 °F 39.2 °F 46.4 °F 100% 29.12 in 5.6 mi NNW 18.4 mph - N/A Rain Light Rain
10:00 AM 48.2 °F - 46.4 °F 93% 29.12 in 6.2 mi NNW 17.3 mph - N/A Rain Light Rain
10:30 AM 48.2 °F - 46.4 °F 93% 29.12 in 6.2 mi NNW 16.1 mph - N/A Rain Light Rain
11:00 AM 48.2 °F - 46.4 °F 93% 29.12 in 6.2 mi NNW 15.0 mph - N/A Rain Light Rain
11:30 AM 48.2 °F - 46.4 °F 93% 29.12 in 4.3 mi NNW 11.5 mph - N/A Rain Light Rain
12:00 PM 48.2 °F - 46.4 °F 93% 29.09 in 6.2 mi NNW 12.7 mph - N/A Rain Light Rain
12:30 PM 50.0 °F - 46.4 °F 87% 29.09 in 6.2 mi NW 15.0 mph - N/A Rain Light Rain
1:00 PM 50 °F - 47 °F 87% 29.11 in 11 mi NW 15.7 mph - - Rain Light Rain
1:00 PM 50.0 °F - 48.2 °F 94% 29.09 in 6.2 mi NW 15.0 mph - N/A Rain Light Rain
1:30 PM 50.0 °F - 48.2 °F 94% 29.09 in 6.2 mi NW 16.1 mph - N/A Rain Light Rain
2:00 PM 50.0 °F - 48.2 °F 94% 29.06 in 6.2 mi NW 16.1 mph - N/A Rain Light Rain
2:30 PM 50.0 °F - 48.2 °F 94% 29.06 in 6.2 mi WNW 16.1 mph - N/A Rain Light Rain
3:00 PM 50.0 °F - 48.2 °F 94% 29.06 in 5.6 mi NW 16.1 mph - N/A Rain Light Rain
3:30 PM 48.2 °F - 46.4 °F 93% 29.06 in 5.0 mi WNW 16.1 mph - N/A Rain Light Rain
4:00 PM 48.2 °F - 46.4 °F 93% 29.03 in 6.2 mi WNW 18.4 mph - N/A Rain Rain
4:30 PM 48.2 °F - 48.2 °F 100% 29.03 in 5.0 mi NW 15.0 mph - N/A Rain Light Rain
5:00 PM 50.0 °F - 48.2 °F 94% 29.03 in 6.2 mi NW 15.0 mph - N/A Rain Light Rain
5:30 PM 50.0 °F - 48.2 °F 94% 29.03 in 4.3 mi NNW 18.4 mph - N/A Rain Light Rain
6:00 PM 51.8 °F - 46.4 °F 82% 29.03 in 6.2 mi NNW 21.9 mph - N/A   Mostly Cloudy
6:30 PM 50.0 °F - 48.2 °F 94% 29.03 in 6.2 mi NNW 25.3 mph - N/A Rain Light Rain
7:00 PM 50 °F - 48 °F 89% 29.08 in 2 mi NNW 20.1 mph - - Rain Light Rain
7:00 PM 50.0 °F - 48.2 °F 94% 29.06 in 2.5 mi NNW 20.7 mph 33.4 mph N/A Rain Light Rain
8:00 PM 51.8 °F - 48.2 °F 88% 29.06 in 6.2 mi NNW 20.7 mph - N/A Rain Light Rain
8:30 PM 51.8 °F - 48.2 °F 88% 29.09 in 6.2 mi NNW 21.9 mph - N/A   Mostly Cloudy
9:00 PM 51.8 °F - 48.2 °F 88% 29.09 in 6.2 mi NNW 21.9 mph - N/A   Mostly Cloudy
9:30 PM 51.8 °F - 48.2 °F 88% 29.09 in 6.2 mi NNW 19.6 mph - N/A   Mostly Cloudy
10:00 PM 51.8 °F - 48.2 °F 88% 29.12 in 6.2 mi NNW 18.4 mph - N/A   Mostly Cloudy
10:30 PM 51.8 °F - 48.2 °F 88% 29.12 in 6.2 mi NNW 18.4 mph - N/A   Mostly Cloudy
11:00 PM 50.0 °F - 48.2 °F 94% 29.12 in 6.2 mi NNW 21.9 mph - N/A Rain Light Rain Showers
11:30 PM 50.0 °F - 48.2 °F 94% 29.12 in 6.2 mi NNW 18.4 mph - N/A Rain Light Rain